THY41J LTFM-EDDH

Flight info

Callsign THY41J
Flight time 2h 33m
Altitude 40000
Route TUDBU Q26 UPAMA DCT APROB DCT ZURFA DCT LALES DCT HDO DCT SOGMA M748 RARUP RARUP3D
Aircraft A359/H-SDE2E3GHIJ3J4J5LM1ORWXY/LB1D1

Departure

Time 2026-05-01 07:27
Airport İstanbul Airport (LTFM)

Arrival

Time 2026-05-01 10:00
Airport Hamburg Helmut Schmidt Airport (EDDH)
Time Latitude Longitude Altitude Speed Heading
2026-05-01 07:23 41.26955 28.73404 319 ft 15 kts 268°
2026-05-01 07:23 41.26952 28.73104 315 ft 17 kts 270°
2026-05-01 07:24 41.26912 28.73002 317 ft 11 kts 207°
2026-05-01 07:24 41.26841 28.72991 318 ft 11 kts 181°
2026-05-01 07:24 41.26766 28.72987 319 ft 11 kts 192°
2026-05-01 07:24 41.26719 28.72931 321 ft 8 kts 245°
2026-05-01 07:25 41.26716 28.72889 324 ft 2 kts 268°
2026-05-01 07:25 41.26716 28.72888 324 ft 0 kts 268°
2026-05-01 07:25 41.26715 28.72846 327 ft 11 kts 269°
2026-05-01 07:25 41.26745 28.72772 327 ft 8 kts 331°
2026-05-01 07:26 41.26766 28.72766 327 ft 0 kts 353°
2026-05-01 07:26 41.26774 28.72765 328 ft 8 kts 353°
2026-05-01 07:26 41.27053 28.72759 325 ft 77 kts 359°
2026-05-01 07:26 41.27820 28.72744 319 ft 141 kts 359°
2026-05-01 07:27 41.28910 28.72700 737 ft 166 kts
2026-05-01 07:27 41.30121 28.72628 1508 ft 185 kts
2026-05-01 07:27 41.31416 28.72612 2419 ft 192 kts
2026-05-01 07:27 41.32817 28.72590 3165 ft 209 kts
2026-05-01 07:28 41.34304 28.72563 3989 ft 217 kts
2026-05-01 07:28 41.35838 28.72507 4804 ft 226 kts 359°
2026-05-01 07:28 41.37423 28.72035 5415 ft 242 kts 341°
2026-05-01 07:28 41.38842 28.70738 6129 ft 254 kts 321°
2026-05-01 07:29 41.40063 28.69001 6840 ft 260 kts 315°
2026-05-01 07:29 41.40843 28.67787 7310 ft 262 kts 314°
2026-05-01 07:29 41.42045 28.65919 8012 ft 267 kts 314°
2026-05-01 07:29 41.43270 28.64030 8721 ft 272 kts 313°
2026-05-01 07:30 41.44522 28.62117 9432 ft 276 kts 312°
2026-05-01 07:30 41.45795 28.60161 10152 ft 281 kts 310°
2026-05-01 07:30 41.47108 28.58136 10518 ft 297 kts 310°
2026-05-01 07:30 41.48506 28.55986 10847 ft 314 kts 310°
2026-05-01 07:31 41.49965 28.53752 11334 ft 323 kts 310°
2026-05-01 07:31 41.54416 28.46957 13437 ft 327 kts 308°
2026-05-01 07:32 41.57420 28.42353 14728 ft 333 kts 308°
2026-05-01 07:32 41.58951 28.40000 15324 ft 337 kts 308°
2026-05-01 07:33 41.62055 28.35232 16533 ft 343 kts 308°
2026-05-01 07:33 41.63627 28.32814 17099 ft 346 kts 307°
2026-05-01 07:33 41.66810 28.27911 18219 ft 351 kts 307°
2026-05-01 07:34 41.68422 28.25426 18728 ft 354 kts 307°
2026-05-01 07:34 41.71645 28.20451 19614 ft 361 kts 307°
2026-05-01 07:34 41.73328 28.17850 20085 ft 363 kts 307°
2026-05-01 07:35 41.74983 28.15290 20549 ft 366 kts 306°
2026-05-01 07:35 41.76660 28.12694 21003 ft 368 kts 306°
2026-05-01 07:35 41.78340 28.10092 21473 ft 371 kts 306°
2026-05-01 07:35 41.80026 28.07467 21915 ft 373 kts 305°
2026-05-01 07:36 41.81627 28.04715 22364 ft 374 kts 302°
2026-05-01 07:36 41.83170 28.01898 22814 ft 377 kts 301°
2026-05-01 07:36 41.84727 27.99059 23295 ft 379 kts 301°
2026-05-01 07:36 41.86292 27.96228 23728 ft 382 kts 301°
2026-05-01 07:37 41.89502 27.90463 24484 ft 387 kts 301°
2026-05-01 07:37 41.91104 27.87591 24857 ft 389 kts 301°
2026-05-01 07:37 41.92729 27.84681 25241 ft 391 kts 302°
2026-05-01 07:38 41.94368 27.81743 25618 ft 394 kts 302°
2026-05-01 07:38 41.96027 27.78794 26028 ft 397 kts 303°
2026-05-01 07:38 41.99770 27.73216 26895 ft 406 kts 309°
2026-05-01 07:39 42.01755 27.70485 27343 ft 409 kts 309°
2026-05-01 07:39 42.03770 27.67758 27800 ft 412 kts 310°
2026-05-01 07:39 42.07815 27.62287 28731 ft 418 kts 310°
2026-05-01 07:40 42.09865 27.59494 29208 ft 421 kts 310°
2026-05-01 07:40 42.11928 27.56671 29670 ft 424 kts 310°
2026-05-01 07:40 42.14002 27.53823 30144 ft 427 kts 310°
2026-05-01 07:40 42.16092 27.50946 30557 ft 430 kts 310°
2026-05-01 07:41 42.18196 27.48046 30962 ft 433 kts 310°
2026-05-01 07:41 42.20315 27.45122 31347 ft 436 kts 310°
2026-05-01 07:41 42.24580 27.39228 32056 ft 442 kts 310°
2026-05-01 07:42 42.26734 27.36247 32414 ft 445 kts 310°
2026-05-01 07:42 42.28896 27.33253 32747 ft 448 kts 310°
2026-05-01 07:42 42.31083 27.30220 33087 ft 451 kts 310°
2026-05-01 07:42 42.33282 27.27169 33394 ft 454 kts 310°
2026-05-01 07:43 42.35450 27.24157 33695 ft 457 kts 310°
2026-05-01 07:43 42.37709 27.21015 34002 ft 459 kts 310°
2026-05-01 07:43 42.42164 27.14806 34545 ft 464 kts 310°
2026-05-01 07:44 42.46677 27.08507 35145 ft 466 kts 310°
2026-05-01 07:44 42.51179 27.02208 35857 ft 465 kts 311°
2026-05-01 07:45 42.53429 26.99055 36193 ft 464 kts 311°
2026-05-01 07:45 42.55671 26.95907 36529 ft 464 kts 311°
2026-05-01 07:45 42.57905 26.92768 36857 ft 464 kts 311°
2026-05-01 07:45 42.60157 26.89600 37185 ft 464 kts 311°
2026-05-01 07:46 42.62398 26.86444 37525 ft 464 kts 311°
2026-05-01 07:46 42.64637 26.83288 37853 ft 463 kts 311°
2026-05-01 07:46 42.69119 26.76959 38469 ft 463 kts 311°
2026-05-01 07:47 42.71350 26.73804 38798 ft 463 kts 311°
2026-05-01 07:47 42.73583 26.70640 39041 ft 464 kts 311°
2026-05-01 07:47 42.75823 26.67466 39248 ft 464 kts 311°
2026-05-01 07:47 42.78035 26.64326 39463 ft 464 kts 311°
2026-05-01 07:48 42.82506 26.57974 39865 ft 465 kts 311°
2026-05-01 07:48 42.84771 26.54751 40065 ft 465 kts 311°
2026-05-01 07:48 42.86983 26.51602 40230 ft 466 kts 311°
2026-05-01 07:49 42.93689 26.42030 40294 ft 464 kts 311°
2026-05-01 07:50 42.98150 26.35646 40303 ft 464 kts 311°
2026-05-01 07:50 43.04842 26.26040 40310 ft 465 kts 311°
2026-05-01 07:51 43.09299 26.19625 40318 ft 465 kts 311°
2026-05-01 07:52 43.15981 26.09979 40327 ft 465 kts 311°
2026-05-01 07:52 43.20405 26.03576 40338 ft 465 kts 311°
2026-05-01 07:53 43.27070 25.93901 40341 ft 465 kts 311°
2026-05-01 07:53 43.31508 25.87439 40340 ft 466 kts 311°
2026-05-01 07:55 43.42622 25.71196 40338 ft 467 kts 311°
2026-05-01 07:56 43.53722 25.54877 40341 ft 467 kts 311°
2026-05-01 07:57 43.60393 25.45026 40340 ft 467 kts 311°
2026-05-01 07:58 43.70018 25.32883 40345 ft 469 kts 317°
2026-05-01 07:59 43.79866 25.21160 40345 ft 468 kts 317°
2026-05-01 08:00 43.94132 25.02661 40337 ft 468 kts 314°
2026-05-01 08:01 44.03414 24.89923 40337 ft 468 kts 314°
2026-05-01 08:02 44.10341 24.80410 40337 ft 469 kts 314°
2026-05-01 08:03 44.17293 24.70832 40338 ft 469 kts 314°
2026-05-01 08:03 44.24238 24.61230 40333 ft 469 kts 314°
2026-05-01 08:04 44.33487 24.48387 40339 ft 469 kts 314°
2026-05-01 08:05 44.40403 24.38746 40335 ft 470 kts 314°
2026-05-01 08:06 44.47332 24.29051 40322 ft 470 kts 315°
2026-05-01 08:07 44.56573 24.16067 40321 ft 470 kts 315°
2026-05-01 08:08 44.63493 24.06304 40317 ft 470 kts 315°
2026-05-01 08:09 44.72705 23.93252 40311 ft 470 kts 315°
2026-05-01 08:09 44.77308 23.86706 40315 ft 470 kts 315°
2026-05-01 08:10 44.86476 23.73623 40306 ft 470 kts 315°
2026-05-01 08:11 44.95655 23.60462 40317 ft 470 kts 315°
2026-05-01 08:12 45.02542 23.50544 40311 ft 471 kts 315°
2026-05-01 08:13 45.08639 23.41735 40304 ft 471 kts 315°
2026-05-01 08:13 45.15511 23.31769 40300 ft 471 kts 315°
2026-05-01 08:14 45.20094 23.25103 40299 ft 471 kts 315°
2026-05-01 08:14 45.24669 23.18431 40297 ft 471 kts 315°
2026-05-01 08:15 45.31518 23.08416 40298 ft 472 kts 315°
2026-05-01 08:16 45.36060 23.01754 40297 ft 472 kts 315°
2026-05-01 08:16 45.40630 22.95032 40303 ft 472 kts 315°
2026-05-01 08:17 45.45191 22.88305 40303 ft 472 kts 315°
2026-05-01 08:17 45.49754 22.81557 40300 ft 473 kts 315°
2026-05-01 08:18 45.54319 22.74797 40298 ft 473 kts 315°
2026-05-01 08:19 45.63450 22.61222 40301 ft 474 kts 315°
2026-05-01 08:19 45.68008 22.54415 40305 ft 474 kts 315°
2026-05-01 08:20 45.72564 22.47596 40308 ft 474 kts 315°
2026-05-01 08:20 45.77116 22.40765 40310 ft 474 kts 315°
2026-05-01 08:21 45.81640 22.33960 40316 ft 474 kts 315°
2026-05-01 08:21 45.86207 22.27074 40318 ft 474 kts 315°
2026-05-01 08:22 45.90716 22.20259 40320 ft 474 kts 315°
2026-05-01 08:22 45.95256 22.13377 40319 ft 474 kts 316°
2026-05-01 08:23 45.99789 22.06489 40319 ft 474 kts 316°
2026-05-01 08:23 46.04308 21.99605 40321 ft 474 kts 316°
2026-05-01 08:24 46.08839 21.92685 40325 ft 474 kts 316°
2026-05-01 08:24 46.13367 21.85751 40322 ft 473 kts 316°
2026-05-01 08:25 46.17872 21.78831 40325 ft 473 kts 316°
2026-05-01 08:25 46.22340 21.71954 40336 ft 473 kts 316°
2026-05-01 08:26 46.26858 21.64983 40334 ft 473 kts 316°
2026-05-01 08:26 46.31348 21.58020 40339 ft 473 kts 315°
2026-05-01 08:27 46.35818 21.51025 40341 ft 473 kts 315°
2026-05-01 08:27 46.40291 21.44033 40339 ft 473 kts 315°
2026-05-01 08:28 46.44739 21.37090 40338 ft 473 kts 315°
2026-05-01 08:28 46.49212 21.30099 40338 ft 473 kts 315°
2026-05-01 08:29 46.53681 21.23098 40341 ft 473 kts 315°
2026-05-01 08:29 46.58147 21.16081 40339 ft 473 kts 315°
2026-05-01 08:30 46.62621 21.09033 40341 ft 473 kts 315°
2026-05-01 08:30 46.67080 21.01990 40345 ft 473 kts 315°
2026-05-01 08:31 46.71510 20.94976 40346 ft 473 kts 315°
2026-05-01 08:31 46.75960 20.87910 40347 ft 473 kts 315°
2026-05-01 08:32 46.80419 20.80812 40344 ft 473 kts 315°
2026-05-01 08:32 46.84864 20.73716 40355 ft 474 kts 315°
2026-05-01 08:33 46.89307 20.66605 40353 ft 473 kts 315°
2026-05-01 08:33 46.93751 20.59474 40356 ft 474 kts 315°
2026-05-01 08:34 46.98182 20.52344 40359 ft 474 kts 315°
2026-05-01 08:34 47.02610 20.45200 40366 ft 474 kts 315°
2026-05-01 08:35 47.07038 20.38038 40370 ft 474 kts 315°
2026-05-01 08:35 47.11460 20.30866 40371 ft 473 kts 315°
2026-05-01 08:36 47.15873 20.23689 40370 ft 473 kts 315°
2026-05-01 08:36 47.20256 20.16542 40372 ft 473 kts 315°
2026-05-01 08:37 47.24691 20.09292 40368 ft 473 kts 315°
2026-05-01 08:37 47.29089 20.02080 40366 ft 473 kts 315°
2026-05-01 08:38 47.33459 19.94898 40365 ft 473 kts 315°
2026-05-01 08:38 47.37852 19.87658 40376 ft 473 kts 315°
2026-05-01 08:39 47.42306 19.80516 40376 ft 471 kts 319°
2026-05-01 08:39 47.47089 19.73903 40367 ft 470 kts 321°
2026-05-01 08:40 47.54306 19.64088 40370 ft 470 kts 321°
2026-05-01 08:40 47.59065 19.57429 40373 ft 470 kts 320°
2026-05-01 08:41 47.63808 19.50721 40370 ft 470 kts 320°
2026-05-01 08:41 47.68510 19.44048 40374 ft 470 kts 320°
2026-05-01 08:42 47.73235 19.37331 40371 ft 469 kts 320°
2026-05-01 08:42 47.77951 19.30614 40373 ft 469 kts 320°
2026-05-01 08:43 47.82653 19.23900 40372 ft 468 kts 320°
2026-05-01 08:43 47.87343 19.17184 40377 ft 468 kts 320°
2026-05-01 08:44 47.92011 19.10481 40375 ft 467 kts 320°
2026-05-01 08:44 47.96676 19.03765 40376 ft 466 kts 321°
2026-05-01 08:45 48.01344 18.97026 40375 ft 466 kts 321°
2026-05-01 08:45 48.05993 18.90301 40375 ft 465 kts 321°
2026-05-01 08:46 48.10639 18.83558 40373 ft 465 kts 320°
2026-05-01 08:46 48.15276 18.76812 40369 ft 464 kts 320°
2026-05-01 08:47 48.19904 18.70061 40368 ft 464 kts 320°
2026-05-01 08:47 48.24504 18.63333 40382 ft 464 kts 320°
2026-05-01 08:48 48.29122 18.56563 40374 ft 464 kts 320°
2026-05-01 08:48 48.33736 18.49779 40371 ft 464 kts 320°
2026-05-01 08:49 48.38341 18.42990 40373 ft 464 kts 320°
2026-05-01 08:49 48.42957 18.36167 40374 ft 464 kts 320°
2026-05-01 08:50 48.47528 18.29391 40375 ft 464 kts 320°
2026-05-01 08:50 48.52129 18.22552 40381 ft 464 kts 320°
2026-05-01 08:51 48.56718 18.15712 40384 ft 464 kts 320°
2026-05-01 08:51 48.61310 18.08850 40390 ft 464 kts 320°
2026-05-01 08:52 48.65897 18.01977 40396 ft 464 kts 320°
2026-05-01 08:52 48.70477 17.95096 40400 ft 464 kts 320°
2026-05-01 08:53 48.75063 17.88187 40397 ft 464 kts 320°
2026-05-01 08:53 48.79610 17.81318 40392 ft 464 kts 320°
2026-05-01 08:54 48.84181 17.74393 40391 ft 464 kts 320°
2026-05-01 08:54 48.88741 17.67470 40406 ft 464 kts 320°
2026-05-01 08:55 48.93307 17.60526 40419 ft 464 kts 320°
2026-05-01 08:55 48.97846 17.53601 40426 ft 464 kts 320°
2026-05-01 08:56 49.02406 17.46628 40425 ft 464 kts 320°
2026-05-01 08:56 49.06956 17.39651 40424 ft 464 kts 319°
2026-05-01 08:57 49.10745 17.33825 40428 ft 464 kts 319°
2026-05-01 08:57 49.15289 17.26824 40417 ft 464 kts 319°
2026-05-01 08:58 49.19837 17.19793 40405 ft 464 kts 319°
2026-05-01 08:58 49.24377 17.12754 40394 ft 464 kts 319°
2026-05-01 08:59 49.28913 17.05703 40388 ft 464 kts 319°
2026-05-01 08:59 49.33438 16.98649 40390 ft 464 kts 319°
2026-05-01 09:00 49.37966 16.91570 40389 ft 464 kts 319°
2026-05-01 09:00 49.42479 16.84494 40393 ft 464 kts 319°
2026-05-01 09:01 49.46956 16.77456 40380 ft 464 kts 319°
2026-05-01 09:01 49.51484 16.70320 40394 ft 464 kts 319°
2026-05-01 09:02 49.55998 16.63185 40382 ft 464 kts 319°
2026-05-01 09:02 49.60502 16.56045 40388 ft 464 kts 319°
2026-05-01 09:03 49.64998 16.48896 40390 ft 464 kts 319°
2026-05-01 09:03 49.69487 16.41742 40392 ft 464 kts 318°
2026-05-01 09:04 49.73978 16.34563 40389 ft 464 kts 318°
2026-05-01 09:04 49.78470 16.27360 40396 ft 464 kts 318°
2026-05-01 09:05 49.82919 16.20207 40405 ft 465 kts 318°
2026-05-01 09:05 49.87398 16.12986 40408 ft 465 kts 318°
2026-05-01 09:06 49.91903 16.05702 40416 ft 465 kts 318°
2026-05-01 09:06 49.96353 15.98485 40421 ft 465 kts 318°
2026-05-01 09:07 50.00821 15.91218 40424 ft 465 kts 317°
2026-05-01 09:07 50.05279 15.83948 40428 ft 465 kts 317°
2026-05-01 09:08 50.09741 15.76650 40425 ft 465 kts 317°
2026-05-01 09:08 50.14193 15.69347 40424 ft 465 kts 317°
2026-05-01 09:09 50.18646 15.62021 40420 ft 465 kts 317°
2026-05-01 09:09 50.23061 15.54737 40414 ft 465 kts 317°
2026-05-01 09:10 50.27499 15.47393 40419 ft 465 kts 317°
2026-05-01 09:10 50.31944 15.40016 40409 ft 465 kts 317°
2026-05-01 09:11 50.36352 15.32680 40406 ft 465 kts 317°
2026-05-01 09:11 50.40785 15.25281 40408 ft 465 kts 317°
2026-05-01 09:12 50.45208 15.17877 40408 ft 465 kts 317°
2026-05-01 09:12 50.49635 15.10444 40407 ft 465 kts 317°
2026-05-01 09:13 50.54057 15.02996 40410 ft 466 kts 316°
2026-05-01 09:13 50.58446 14.95584 40412 ft 466 kts 316°
2026-05-01 09:14 50.62860 14.88109 40413 ft 466 kts 316°
2026-05-01 09:14 50.67255 14.80640 40414 ft 466 kts 316°
2026-05-01 09:15 50.71672 14.73114 40418 ft 466 kts 316°
2026-05-01 09:15 50.76081 14.65579 40419 ft 466 kts 316°
2026-05-01 09:16 50.80446 14.58097 40419 ft 466 kts 316°
2026-05-01 09:17 50.87022 14.46780 40424 ft 466 kts 315°
2026-05-01 09:17 50.93721 14.35661 40430 ft 463 kts 321°
2026-05-01 09:18 51.00974 14.25567 40428 ft 462 kts 322°
2026-05-01 09:19 51.08273 14.15514 40430 ft 462 kts 321°
2026-05-01 09:20 51.15514 14.05493 40432 ft 461 kts 321°
2026-05-01 09:21 51.25181 13.92038 40432 ft 461 kts 321°
2026-05-01 09:21 51.32429 13.81900 40432 ft 461 kts 321°
2026-05-01 09:22 51.42032 13.68396 40429 ft 461 kts 321°
2026-05-01 09:23 51.49252 13.58192 40434 ft 461 kts 320°
2026-05-01 09:24 51.56463 13.47956 40422 ft 461 kts 320°
2026-05-01 09:25 51.66034 13.34302 40426 ft 461 kts 320°
2026-05-01 09:26 51.73224 13.23990 40424 ft 461 kts 320°
2026-05-01 09:26 51.80405 13.13648 40428 ft 461 kts 320°
2026-05-01 09:27 51.87563 13.03288 40425 ft 461 kts 319°
2026-05-01 09:28 51.92338 12.96353 40423 ft 461 kts 319°
2026-05-01 09:28 51.97108 12.89406 40419 ft 461 kts 319°
2026-05-01 09:29 52.04255 12.78955 40422 ft 461 kts 319°
2026-05-01 09:30 52.11361 12.68518 40419 ft 461 kts 319°
2026-05-01 09:30 52.18533 12.57937 40421 ft 461 kts 319°
2026-05-01 09:31 52.22964 12.51378 40423 ft 461 kts 319°
2026-05-01 09:32 52.30082 12.40799 40428 ft 461 kts 319°
2026-05-01 09:32 52.37198 12.30175 40427 ft 462 kts 318°
2026-05-01 09:33 52.41909 12.23114 40424 ft 461 kts 318°
2026-05-01 09:34 52.49011 12.12430 40371 ft 460 kts 318°
2026-05-01 09:34 52.51358 12.08889 39832 ft 459 kts 318°
2026-05-01 09:34 52.56080 12.01750 38736 ft 465 kts 318°
2026-05-01 09:35 52.58468 11.98132 38109 ft 468 kts 318°
2026-05-01 09:35 52.63316 11.90881 36854 ft 472 kts 322°
2026-05-01 09:35 52.65887 11.87521 36234 ft 473 kts 323°
2026-05-01 09:36 52.68502 11.84191 35619 ft 474 kts 323°
2026-05-01 09:36 52.71123 11.80888 35033 ft 475 kts 323°
2026-05-01 09:36 52.73750 11.77585 34448 ft 474 kts 324°
2026-05-01 09:36 52.76369 11.74284 33790 ft 471 kts 323°
2026-05-01 09:37 52.78962 11.71002 33135 ft 468 kts 323°
2026-05-01 09:37 52.84037 11.64548 31428 ft 461 kts 323°
2026-05-01 09:37 52.86562 11.61327 30828 ft 458 kts 323°
2026-05-01 09:38 52.91591 11.54890 29497 ft 454 kts 323°
2026-05-01 09:38 52.94080 11.51694 28841 ft 451 kts 323°
2026-05-01 09:38 52.96558 11.48515 28188 ft 449 kts 323°
2026-05-01 09:39 53.01470 11.42190 26938 ft 444 kts 323°
2026-05-01 09:39 53.03902 11.39050 26329 ft 441 kts 323°
2026-05-01 09:39 53.06314 11.35933 25736 ft 438 kts 323°
2026-05-01 09:40 53.08718 11.32831 25147 ft 436 kts 323°
2026-05-01 09:40 53.13486 11.26730 24040 ft 430 kts 324°
2026-05-01 09:40 53.15882 11.23862 23386 ft 427 kts 326°
2026-05-01 09:41 53.18352 11.21034 22728 ft 422 kts 327°
2026-05-01 09:41 53.23089 11.15713 21477 ft 407 kts 327°
2026-05-01 09:41 53.25428 11.13068 20877 ft 405 kts 327°
2026-05-01 09:42 53.27722 11.10444 20293 ft 403 kts 327°
2026-05-01 09:42 53.30022 11.07788 19710 ft 400 kts 327°
2026-05-01 09:42 53.34572 11.02485 18552 ft 396 kts 326°
2026-05-01 09:43 53.39070 10.97224 17279 ft 392 kts 326°
2026-05-01 09:43 53.41294 10.94618 16670 ft 389 kts 326°
2026-05-01 09:43 53.43506 10.92026 16074 ft 387 kts 326°
2026-05-01 09:44 53.47867 10.86918 14903 ft 382 kts 327°
2026-05-01 09:44 53.49338 10.85194 14531 ft 381 kts 327°
2026-05-01 09:44 53.51509 10.82644 13934 ft 379 kts 327°
2026-05-01 09:45 53.53637 10.80144 13327 ft 376 kts 327°
2026-05-01 09:45 53.57878 10.75149 12291 ft 366 kts 326°
2026-05-01 09:45 53.59948 10.72701 11810 ft 362 kts 325°
2026-05-01 09:46 53.61787 10.69857 11310 ft 359 kts 309°
2026-05-01 09:46 53.62897 10.66161 10837 ft 348 kts 285°
2026-05-01 09:46 53.63074 10.62245 10378 ft 329 kts 262°
2026-05-01 09:46 53.62560 10.58590 9893 ft 313 kts 251°
2026-05-01 09:47 53.61896 10.55172 9379 ft 303 kts 250°
2026-05-01 09:47 53.61229 10.51790 8877 ft 304 kts 250°
2026-05-01 09:47 53.60578 10.48443 8387 ft 295 kts 250°
2026-05-01 09:47 53.59940 10.45143 7883 ft 298 kts 251°
2026-05-01 09:48 53.59293 10.41816 7408 ft 299 kts 250°
2026-05-01 09:48 53.58646 10.38513 7022 ft 296 kts 250°
2026-05-01 09:48 53.58003 10.35229 6623 ft 294 kts 250°
2026-05-01 09:48 53.57375 10.32034 6228 ft 293 kts 250°
2026-05-01 09:49 53.56738 10.28780 5803 ft 290 kts 250°
2026-05-01 09:49 53.56122 10.25560 5418 ft 287 kts 250°
2026-05-01 09:49 53.55509 10.22382 5014 ft 284 kts 250°
2026-05-01 09:49 53.54904 10.19233 4592 ft 279 kts 250°
2026-05-01 09:50 53.54329 10.16238 4207 ft 259 kts 250°
2026-05-01 09:50 53.53789 10.13442 3827 ft 243 kts 250°
2026-05-01 09:50 53.53281 10.10804 3441 ft 233 kts 250°
2026-05-01 09:50 53.52776 10.08241 3099 ft 230 kts 250°
2026-05-01 09:51 53.52275 10.05688 2975 ft 227 kts 250°
2026-05-01 09:51 53.51782 10.03163 2998 ft 229 kts 250°
2026-05-01 09:51 53.51293 10.00630 2986 ft 226 kts 250°
2026-05-01 09:51 53.50807 9.98103 3005 ft 228 kts 250°
2026-05-01 09:52 53.50297 9.95577 2992 ft 227 kts 247°
2026-05-01 09:52 53.49521 9.93288 2985 ft 226 kts 231°
2026-05-01 09:52 53.48537 9.91237 2997 ft 227 kts 229°
2026-05-01 09:52 53.47519 9.89211 2983 ft 225 kts 227°
2026-05-01 09:53 53.46506 9.87222 2978 ft 223 kts 227°
2026-05-01 09:53 53.45521 9.85300 2979 ft 216 kts 227°
2026-05-01 09:53 53.44561 9.83393 3031 ft 205 kts 228°
2026-05-01 09:53 53.43665 9.81598 3027 ft 204 kts 227°
2026-05-01 09:54 53.42913 9.79593 2996 ft 206 kts 245°
2026-05-01 09:54 53.42744 9.77211 2993 ft 212 kts 274°
2026-05-01 09:54 53.43323 9.74932 3030 ft 218 kts 304°
2026-05-01 09:54 53.44398 9.73168 3020 ft 217 kts 319°
2026-05-01 09:55 53.45576 9.71617 2991 ft 213 kts 322°
2026-05-01 09:55 53.46856 9.70342 2989 ft 212 kts 341°
2026-05-01 09:55 53.48243 9.70425 2998 ft 197 kts 19°
2026-05-01 09:55 53.49441 9.71477 2998 ft 193 kts 40°
2026-05-01 09:56 53.50340 9.73145 3007 ft 193 kts 56°
2026-05-01 09:56 53.51167 9.74916 2980 ft 190 kts 54°
2026-05-01 09:56 53.52017 9.76635 2982 ft 191 kts 52°
2026-05-01 09:56 53.52870 9.78324 2920 ft 194 kts 53°
2026-05-01 09:57 53.53745 9.80077 2598 ft 197 kts 52°
2026-05-01 09:57 53.54616 9.81809 2351 ft 190 kts 51°
2026-05-01 09:57 53.55442 9.83463 2084 ft 180 kts 52°
2026-05-01 09:57 53.56215 9.85040 1843 ft 171 kts 52°
2026-05-01 09:58 53.56963 9.86549 1602 ft 163 kts 52°
2026-05-01 09:58 53.57672 9.87978 1420 ft 157 kts 52°
2026-05-01 09:58 53.58352 9.89364 1179 ft 147 kts 53°
2026-05-01 09:58 53.58991 9.90650 1012 ft 142 kts 52°
2026-05-01 09:59 53.59624 9.91928 803 ft 141 kts 51°
2026-05-01 09:59 53.60260 9.93179 553 ft 141 kts 52°
2026-05-01 09:59 53.60878 9.94458 354 ft 143 kts 52°
2026-05-01 09:59 53.61524 9.95759 205 ft 144 kts 52°
2026-05-01 10:00 53.62168 9.97043 60 ft 142 kts 51°
2026-05-01 10:00 53.62702 9.98152 49 ft 100 kts 52°
2026-05-01 10:00 53.62959 9.98662 52 ft 18 kts 49°
2026-05-01 10:00 53.63044 9.98840 49 ft 21 kts 57°
2026-05-01 10:01 53.63090 9.99073 51 ft 22 kts 84°
2026-05-01 10:01 53.63086 9.99257 49 ft 13 kts 94°
2026-05-01 10:01 53.63104 9.99417 48 ft 14 kts 63°
2026-05-01 10:01 53.63170 9.99567 49 ft 18 kts 49°
2026-05-01 10:02 53.63257 9.99727 50 ft 19 kts 46°
2026-05-01 10:02 53.63339 9.99875 50 ft 6 kts 50°
2026-05-01 10:02 53.63365 9.99929 50 ft 12 kts 51°
2026-05-01 10:02 53.63419 10.00049 52 ft 13 kts 60°
2026-05-01 10:03 53.63397 10.00181 52 ft 12 kts 152°
2026-05-01 10:03 53.63305 10.00204 55 ft 15 kts 177°
2026-05-01 10:03 53.63196 10.00214 52 ft 16 kts 175°
2026-05-01 10:03 53.63120 10.00241 48 ft 10 kts 146°
2026-05-01 10:04 53.63105 10.00310 49 ft 5 kts 97°
2026-05-01 10:04 53.63106 10.00383 51 ft 0 kts 87°
2026-05-01 10:04 53.63106 10.00384 51 ft 0 kts 87°
2026-05-01 10:04 53.63106 10.00383 51 ft 0 kts 87°
2026-05-01 10:05 53.63105 10.00378 52 ft 0 kts 87°